Showing default

QIANFAN-36, 61569

Orbit data source: Space-Track

QIANFAN-36, 61569 is a Chinese payload satellite in LEO that was launched on Tue, 15 Oct 2024 UTC via a CHANG ZHENG 6A launch vehicle from the Taiyaun Space Center, China (TSC). Payload-class satellites include a variety of spacecraft equipped with specific instruments for various scientific and technological missions. These include communications satellites like Starlink; space stations such as the ISS; scientific satellites like the Hubble; Earth observation satellites from companies like Planet Labs, Umbra, and HawkEye 360; GPS; miniature CubeSats for education and research; and military/defense satellites.

Loading next visibility...
Identifier
61569, 2024-185T
Orbit
LEO
Country
Flag of CNCN / PRC
Related business
Manufacturer
GESIH/SECM
Mission
Operational Commercial Communications
Bus & Motor
QIANFAN, Unknown motor
Mass
267 kg wet, ~267 kg dry
Launch date (UTC)
2024-10-15 (1 year ago)
Launch vehicle
CHANG ZHENG 6A
Launch site
Taiyaun Space Center, China (TSC)
Object type
Payload
Rocket body
Debris
Shape & HBR
Box + 1 Pan, 5.0 m
Radar Cross Section
13.200 m², Large (>1 m²)

Expand to show TLE details & history
Last TLE update: 10 hours ago

TLE from 10 hours ago
0 QIANFAN-36
1 61569U 24185T   26105.89302583  .00000076  00000-0  92298-4 0  9996
2 61569  88.9767  68.0836 0007981  52.8361 307.3520 13.55621171 84740
Epoch: 2026-04-15T21:25Z
TLE epoch observation values (Epoch: 2026-04-15T21:25:57.431Z)
Latitude
-0.00008°
Longitude
-97.45409°
Altitude
1,051.013 km
Speed
7.328 km/s
True Right ascension
04h 32m 20s
True Declination
0° 00' 00"
Sunlit
Object was in daylight at epoch
Visualization orbit readout
Latitude
Unknown
Longitude
Unknown
Altitude
Unknown
Speed
Unknown
Apparent Right ascension
Unknown
Apparent Declination
Unknown
Sunlit
N/A
Visualization observer readout
Local Sidereal Time
14:22:53
Azimuth
Unknown
Elevation
Unknown
Doppler factor
Unknown
Orbital elements
Apogee altitude
1,054.62 km
Perigee altitude
1,042.766 km
Semi-major axis
7,426.83 km
Eccentricity
0.0008
Inclination
88.9767°
RAAN
68.0836°
Arg. of periapsis
52.8361°
True anomaly
307.27926°
Mean anomaly
307.352°
Eccentric anomaly
307.31563°
Mean motion
3.39108 °/min
Orbital period
106.16 mins
BSTAR
0.000092298
Loading maneuver chart data...
Computing Atmospheric mass density...
Loading historical data...
Loading historical data...
Loading historical data...
Loading historical data...
Loading historical data...
Loading historical data...
Loading historical data...

Documentation

Showing up to 5 results
|